Flag for U.S.A. Weather past 2 weeks in Pueblo, Colorado, U.S.A.

Now
29 °F

Sunny.


Feels Like: 20 °F
Forecast: 6 / 29 °F
Wind: 9 mph from Southeast

Location: Pueblo Memorial Airport

Current Time: Dec 27, 2014 at 4:35:23 PM

Latest Report: Dec 27, 2014 at 3:53 PM


Visibility: 10 mi

Pressure: 30.25 "Hg

Humidity: 51%

Dew point: 13 °F

Location of PuebloLocation

Historic Weather in Pueblo — Graph

°F

Pueblo temperature yesterday

Maximum temperature yesterday: 27 °F (at 12:53 AM)
Minimum temperature yesterday: 18 °F (at 11:53 PM)
Average temperature yesterday: 23 °F

Past Weeks' High & Low Weather Summary

 TemperatureHumidityPressure
High60 °F (Dec 12, 2:53 PM)100% (Dec 13, 1:53 AM)30.41 "Hg (Dec 13, 1:53 AM)
Low5 °F (Dec 27, 5:53 AM)19% (Dec 12, 2:53 PM)29.38 "Hg (Dec 25, 12:53 PM)
Average31 °F68%29.95 "Hg
* Reported Dec 12 2:53 PM — Dec 27 2:53 PM, Pueblo, Weather by CustomWeather, © 2014

Note: Actual official high and low records may vary slightly from our data, if they occured in-between our weather recording intervals... More about our weather records

Advertising

Pueblo weather history for previous 24 hours

 ConditionsComfort  
Time TempWeatherWind HumidityBarometerVisibility
2:53 PM
Dec 27
30 °FSunny.9 mph45%30.23 "Hg10 mi
1:53 PM31 °FSunny.7 mph41%30.22 "Hg10 mi
12:53 PM31 °FSunny.No wind38%30.24 "Hg10 mi
11:53 AM28 °FSunny.6 mph47%30.29 "Hg10 mi
10:53 AM24 °FSunny.7 mph57%30.34 "Hg10 mi
9:53 AM20 °FSunny.8 mph71%30.39 "Hg10 mi
8:53 AM14 °FSunny.7 mph84%30.40 "Hg10 mi
7:53 AM8 °FSunny.3 mph83%30.41 "Hg10 mi
6:53 AM6 °FClear.No wind87%30.40 "Hg10 mi
5:53 AM5 °FClear.No wind87%30.37 "Hg10 mi
4:53 AM12 °FClear.No wind88%30.30 "Hg10 mi
3:53 AM9 °FClear.6 mph91%30.29 "Hg10 mi
2:53 AM12 °FPassing clouds.No wind92%30.27 "Hg10 mi
1:53 AM18 °FOvercast.No wind84%30.25 "Hg10 mi
12:53 AM18 °FOvercast.No wind84%30.24 "Hg10 mi
11:53 PM
Dec 26
18 °FOvercast.3 mph84%30.25 "Hg10 mi
10:53 PM19 °FOvercast.8 mph81%30.25 "Hg10 mi
9:53 PM19 °FMostly cloudy.8 mph77%30.24 "Hg10 mi
8:53 PM19 °FMostly cloudy.6 mph81%30.22 "Hg10 mi
7:53 PM20 °FMostly cloudy.7 mph82%30.19 "Hg10 mi
7:04 PM21 °FOvercast.8 mph78%30.04 "Hg10 mi
6:53 PM21 °FMostly cloudy.8 mph78%30.16 "Hg10 mi
6:00 PM22 °FLight snow. Ice fog.7 mph89%30.01 "Hg2 mi
4:53 PM23 °FLight snow. Ice fog.7 mph85%30.07 "Hg4 mi
Weather by CustomWeather, © 2014

See weather overviewHow to use our weather pages